FW6211 Weather Reports


time (UTC)temp
C
wind
direction
speed
KPH
gust
KPH
rain 1hr
cm
rain 24hr
cm
rain mn
cm
humidity
%
barometer
mb
20260506034023 8 0.0 0.0 0.00 0.00 0.00 48 1020.5
20260506033018 8 0.0 0.0 0.00 0.00 0.00 48 1020.5
20260506032031 8 0.0 0.0 0.00 0.00 0.00 48 1020.5
20260506031046 8 0.0 0.0 0.00 0.00 0.00 47 1020.6
20260506030041 8 0.0 0.0 0.00 0.00 0.00 47 1020.6
20260506025016 8 0.0 0.0 0.00 0.00 0.00 46 1020.7
20260506024016 9 0.0 0.0 0.00 0.00 0.00 45 1020.7
20260506023023 9 0.0 0.0 0.00 0.00 0.00 45 1020.7
20260506022019 9 0.0 0.0 0.00 0.00 0.00 44 1020.8
20260506021019 10 0.0 0.0 0.00 0.00 0.00 43 1020.9
20260506020113 10 0.0 0.0 0.00 0.00 0.00 42 1020.9
20260506015048 10 0.0 0.0 0.00 0.00 0.00 42 1021.0
20260506014022 10 0.0 0.0 0.00 0.00 0.00 42 1021.0
20260506013017 10 0.0 0.0 0.00 0.00 0.00 42 1021.1
20260506012031 11 0.0 0.0 0.00 0.00 0.00 41 1021.1
20260506011046 11 0.0 0.0 0.00 0.00 0.00 41 1021.3
20260506010020 11 0.0 0.0 0.00 0.00 0.00 41 1021.3
20260506005016 11 0.0 0.0 0.00 0.00 0.00 40 1021.4
20260506004029 12 0.0 0.0 0.00 0.00 0.00 39 1021.5
20260506003024 12 0.0 0.0 0.00 0.00 0.00 39 1021.5
20260506002039 13 0.0 0.0 0.00 0.00 0.00 36 1021.8
20260506001032 14 0.0 0.0 0.00 0.00 0.00 36 1021.8
20260506000026 13 0.0 0.0 0.00 0.00 0.00 37 1021.9
20260505235042 13 0.0 0.0 0.00 0.00 0.00 39 1022.0
20260505234017 12 0.0 0.0 0.00 0.00 0.00 39 1022.1
20260505233030 13 0.0 0.0 0.00 0.00 0.00 37 1022.2
20260505232024 13 0.0 0.0 0.00 0.00 0.00 37 1022.3
20260505231020 13 0.0 0.0 0.00 0.00 0.00 36 1022.5
20260505230032 13 0.0 0.0 0.00 0.00 0.00 36 1022.6
20260505225053 13 0.0 0.0 0.00 0.00 0.00 38 1022.7
20260505224028 13 0.0 0.0 0.00 0.00 0.00 38 1022.8
20260505223023 13 0.0 0.0 0.00 0.00 0.00 37 1022.9
20260505222018 13 0.0 0.0 0.00 0.00 0.00 37 1023.1
20260505221031 13 0.0 0.0 0.00 0.00 0.00 39 1023.3
20260505220025 13 0.0 0.0 0.00 0.00 0.00 39 1023.3
20260505215021 12 0.0 0.0 0.00 0.00 0.00 39 1023.4
20260505214015 13 0.0 0.0 0.00 0.00 0.00 37 1023.5
20260505213028 13 0.0 0.0 0.00 0.00 0.00 39 1023.6
20260505212044 12 0.0 0.0 0.00 0.00 0.00 40 1023.8
20260505211018 13 0.0 0.0 0.00 0.00 0.00 39 1023.8
20260505210031 12 45 0.0 1.6 0.00 0.00 0.00 40 1024.0
20260505205021 12 0.0 0.0 0.00 0.00 0.00 40 1024.2
20260505204015 13 0.0 0.0 0.00 0.00 0.00 40 1024.2
20260505203043 12 0.0 0.0 0.00 0.00 0.00 41 1024.3
20260505202018 12 0.0 0.0 0.00 0.00 0.00 43 1024.5
20260505201039 11 0.0 0.0 0.00 0.00 0.00 42 1024.5
20260505200032 11 0.0 0.0 0.00 0.00 0.00 43 1024.7
20260505195027 12 0.0 0.0 0.00 0.00 0.00 43 1024.7
20260505194042 12 0.0 0.0 0.00 0.00 0.00 43 1024.7
20260505193017 11 0.0 0.0 0.00 0.00 0.00 44 1024.7
20260505192030 12 0.0 0.0 0.00 0.00 0.00 43 1025.0
20260505191025 11 0.0 0.0 0.00 0.00 0.00 44 1024.9
20260505190020 11 0.0 0.0 0.00 0.00 0.00 45 1025.0
20260505185021 11 0.0 0.0 0.00 0.00 0.00 45 1025.2
20260505184016 10 0.0 0.0 0.00 0.00 0.00 46 1025.2
20260505183023 10 0.0 0.0 0.00 0.00 0.00 47 1025.2
20260505182018 10 0.0 0.0 0.00 0.00 0.00 47 1025.1
20260505181039 10 0.0 0.0 0.00 0.00 0.00 48 1025.3
20260505180032 10 0.0 0.0 0.00 0.00 0.00 48 1025.4
20260505175026 9 0.0 0.0 0.00 0.00 0.00 49 1025.4
20260505174022 8 0.0 0.0 0.00 0.00 0.00 51 1025.4
20260505173017 10 0.0 3.2 0.00 0.00 0.00 48 1025.5
20260505172031 9 0.0 0.0 0.00 0.00 0.00 49 1025.6
20260505171025 9 0.0 0.0 0.00 0.00 0.00 49 1025.6
20260505170025 8 0.0 0.0 0.00 0.00 0.00 50 1025.6
20260505165033 8 0.0 0.0 0.00 0.00 0.00 50 1025.7
20260505164028 8 0.0 0.0 0.00 0.00 0.00 51 1025.8
20260505163043 7 0.0 0.0 0.00 0.00 0.00 53 1025.8
20260505162018 7 0.0 0.0 0.00 0.00 0.00 52 1025.9
20260505161054 7 0.0 0.0 0.00 0.00 0.00 53 1026.1
20260505153033 6 0.0 0.0 0.00 0.00 0.00 55 1025.9
20260505152029 6 0.0 0.0 0.00 0.00 0.00 54 1025.9
20260505151046 8 0.0 0.0 0.00 0.00 0.00 50 1025.9
20260505125036 -2 0.0 0.0 0.00 0.00 0.00 92 1025.6
20260505124029 -2 0.0 0.0 0.00 0.00 0.00 92 1025.6
20260505123024 -2 0.0 0.0 0.00 0.00 0.00 91 1025.6
20260505122039 -2 0.0 0.0 0.00 0.00 0.00 92 1025.5
20260505121052 -2 0.0 0.0 0.00 0.00 0.00 92 1025.5
20260505120026 -2 0.0 0.0 0.00 0.00 0.00 92 1025.5
20260505115102 -2 0.0 0.0 0.00 0.00 0.00 91 1025.4
20260505114016 -2 0.0 0.0 0.00 0.00 0.00 91 1025.4
20260505113029 -2 0.0 0.0 0.00 0.00 0.00 90 1025.4
20260505112024 -2 0.0 0.0 0.00 0.00 0.00 90 1025.4
20260505111019 -1 0.0 0.0 0.00 0.00 0.00 90 1025.4
20260505102019 -1 0.0 0.0 0.00 0.00 0.00 93 1025.2
20260505101020 -2 0.0 0.0 0.00 0.00 0.00 93 1025.1
20260505100015 -2 0.0 0.0 0.00 0.00 0.00 93 1025.1
20260505095028 -2 0.0 0.0 0.00 0.00 0.00 93 1025.0
20260505094023 -2 0.0 0.0 0.00 0.00 0.00 92 1024.9
20260505093038 -2 0.0 0.0 0.00 0.00 0.00 92 1024.9
20260505092032 -2 0.0 0.0 0.00 0.00 0.00 91 1024.9
20260505091026 -2 0.0 0.0 0.00 0.00 0.00 90 1024.7
20260505090021 -1 0.0 0.0 0.00 0.00 0.00 89 1024.7
20260505085022 -1 0.0 0.0 0.00 0.00 0.00 87 1024.6
20260505084017 -1 0.0 0.0 0.00 0.00 0.00 86 1024.5
20260505083024 -1 0.0 0.0 0.00 0.00 0.00 86 1024.5
20260505082018 0 0.0 0.0 0.00 0.00 0.00 84 1024.5
20260505081019 0 0.0 0.0 0.00 0.00 0.00 82 1024.5
20260505080032 0 0.0 0.0 0.00 0.00 0.00 80 1024.2
20260505075027 0 0.0 0.0 0.00 0.00 0.00 80 1024.3
20260505074023 1 0.0 0.0 0.00 0.00 0.00 79 1024.3
20260505073018 1 45 0.0 1.6 0.00 0.00 0.00 78 1024.2
20260505072031 1 0.0 0.0 0.00 0.00 0.00 78 1024.2
20260505071026 1 0.0 0.0 0.00 0.00 0.00 77 1024.1
20260505070020 1 0.0 0.0 0.00 0.00 0.00 77 1024.1
20260505065015 1 0.0 0.0 0.00 0.00 0.00 76 1024.2
20260505064028 1 0.0 0.0 0.00 0.00 0.00 76 1024.2
20260505063023 1 0.0 0.0 0.00 0.00 0.00 75 1024.2
20260505062018 2 0.0 0.0 0.00 0.00 0.00 72 1024.1
20260505061031 2 0.0 0.0 0.00 0.00 0.00 71 1024.0
20260505060026 2 0.0 0.0 0.00 0.00 0.00 70 1024.0
20260505055020 3 0.0 0.0 0.00 0.00 0.00 69 1023.9
20260505054053 3 0.0 0.0 0.00 0.00 0.00 68 1023.8
20260505052023 3 0.0 0.0 0.00 0.00 0.00 66 1023.7
20260505051018 3 0.0 0.0 0.00 0.00 0.00 66 1023.5
20260505050111 3 0.0 0.0 0.00 0.00 0.00 66 1023.5
20260505041051 5 0.0 0.0 0.00 0.00 0.00 61 1022.9
20260505040025 6 0.0 0.0 0.00 0.00 0.00 60 1022.6
20260505035020 6 0.0 0.0 0.00 0.00 0.00 59 1022.4